ORCA-7 (49013 NORAD) Tracking and Keplerian Element Data

This shows tracking and keplerian element data for the satellite.

Feedback or suggestion? Click here.




ElementValue
Catalog49013
NameORCA-7
Epoch Orbit1343
Epoch Day269.13947101
Epoch Year2021
RAAN219.6817
Inclination51.6257
Eccentricity0.0008045
Argument of Perigee219.7865
Mean Anonmoly140.2523
Mean Motion15.24196572
Decay Rate0.00010708
L11 49013U 21013C 21269.13947101 .00010708 00000-0 44622-3 0 9997
L22 49013 51.6257 219.6817 0008045 219.7865 140.2523 15.24196572 13434

Live tracking and technical data element details for ORCA-7 (NORAD 49013). ORCA-7 can be tracked NOW for your location showing map with azimuth and elevation plus other details from your city location.

Track the satellite on the map from your city or location and see movement details for azimuth, elevation, latitude, longitude, range, height, and movement on the map or in text.







IsCatalogInMostPopularTable: catalog: 49013, numindb: 18
Update: records affected: 1



GetName: 49013 ORCA-7

Hit Count: updated at: Sun, 26 Sep 2021 16:08:03 GMT